Group_ship,Cruise,JD_GMT,Date_DDMMYYYY,TIME_HH:MM:SS,Lat_dec_degree,Long_dec_degree,xCO2eq_ppm,xCO2a_ppm,Pres_Equi_hPa,Pres_sealevel_hPa,EqTemp_C,SST(TSG)_C,Sal(TSG)_Permil,,Gasflow_IR_ml/min,Temp_IR_C,Pres_IR_hPa,Ship_heading_true_degree,Ship_speed_knot,Wind_dir_rel_degree,Wind_speed_rel_m/s,fCO2W@SST_uatm,Qcflag_water,fCO2a_uatm,Qcflag_air,dfCO2_uatm,Fluoro_ug/l,Wind_speed_true_m/s,Wind_dir_true_degree,Air_temp_C,Oxygen
AOML_Explorer,Ex0736NE,243.984,31082007,23:36:58,40.411,-73.531,312.01,-9.00,1012.73,1009.60,23.07,23.08,30.832,1.184,100.250,32.405,1012.730,98.800,14.300,292.000,11.838,302.43,2,-9.00,9,-9.00,0.19,11.63,351.42,23.99,290.10
AOML_Explorer,Ex0736NE,243.986,31082007,23:39:31,40.409,-73.518,316.52,-9.00,1013.35,1009.40,23.11,23.11,30.810,1.153,100.668,32.405,1013.355,98.500,14.200,290.000,10.809,306.98,2,-9.00,9,-9.00,0.20,11.07,346.45,24.02,287.85
AOML_Explorer,Ex0736NE,243.988,31082007,23:42:04,40.409,-73.515,322.66,-9.00,1013.17,1009.50,23.10,23.02,30.899,1.139,100.383,32.402,1013.172,0.000,0.000,292.000,10.294,311.73,2,-9.00,9,-9.00,0.20,10.41,346.08,23.98,286.08
AOML_Explorer,Ex0736NE,243.989,31082007,23:44:37,40.409,-73.515,330.69,-9.00,1012.77,1009.60,23.10,22.87,30.996,1.129,100.451,32.402,1012.770,0.000,0.000,289.000,10.294,317.46,2,-9.00,9,-9.00,0.21,10.76,343.74,23.96,286.58
AOML_Explorer,Ex0736NE,243.991,31082007,23:47:10,40.405,-73.479,336.48,-9.00,1012.83,1009.60,23.08,22.91,30.962,1.167,100.349,32.401,1012.834,97.900,10.600,286.000,10.809,323.79,2,-9.00,9,-9.00,0.20,11.54,343.28,23.94,284.87
AOML_Explorer,Ex0736NE,243.993,31082007,23:49:43,40.404,-73.466,344.29,-9.00,1012.82,1009.50,22.96,22.92,30.974,1.131,100.071,32.400,1012.823,98.500,14.200,295.000,10.294,333.18,2,-9.00,9,-9.00,0.20,10.08,348.50,23.92,285.42
AOML_Explorer,Ex0736NE,243.995,31082007,23:52:16,40.403,-73.453,350.84,-9.00,1012.79,1009.50,22.96,22.91,30.957,1.092,100.257,32.400,1012.786,98.300,14.300,288.000,11.323,339.28,2,-9.00,9,-9.00,0.21,11.72,346.28,23.9,286.35
AOML_Explorer,Ex0736NE,243.996,31082007,23:54:49,40.401,-73.440,355.53,-9.00,1012.96,1009.60,22.99,22.96,30.924,1.121,100.371,32.399,1012.962,98.200,14.300,290.000,10.294,344.17,2,-9.00,9,-9.00,0.21,10.65,344.63,23.85,286.48
AOML_Explorer,Ex0736NE,243.998,31082007,23:57:22,40.400,-73.427,358.32,-9.00,1012.96,1009.80,22.99,22.95,30.968,1.142,100.594,32.396,1012.956,98.000,14.300,293.000,9.779,346.82,2,-9.00,9,-9.00,0.21,9.92,344.94,23.79,284.43
AOML_Explorer,Ex0736NE,244.000,31082007,23:59:55,40.398,-73.414,361.68,-9.00,1012.91,1009.60,23.00,22.86,31.078,1.147,100.488,32.395,1012.913,98.000,14.300,288.000,9.265,348.50,2,-9.00,9,-9.00,0.25,10.16,339.11,23.8,281.42
AOML_Explorer,Ex0736NE,244.015,01092007,0:21:40,40.387,-73.302,420.34,-9.00,1012.92,1009.70,22.51,22.55,31.557,1.111,100.289,32.440,1012.924,97.500,14.400,284.000,9.779,408.44,2,-9.00,9,-9.00,0.24,10.97,338.20,23.53,273.75
AOML_Explorer,Ex0736NE,244.017,01092007,0:24:13,40.386,-73.288,424.70,-9.00,1012.99,1009.80,22.54,22.51,31.563,1.095,100.406,32.440,1012.989,97.400,14.200,288.000,10.294,411.57,2,-9.00,9,-9.00,0.26,10.87,343.05,23.49,274.80
AOML_Explorer,Ex0736NE,244.019,01092007,0:26:46,40.385,-73.276,428.50,-9.00,1013.11,1009.80,22.61,22.47,31.559,1.105,100.428,32.435,1013.111,97.400,13.700,284.000,9.265,413.36,2,-9.00,9,-9.00,0.27,10.43,337.92,23.47,276.18
AOML_Explorer,Ex0736NE,244.020,01092007,0:29:19,40.383,-73.263,432.81,-9.00,1013.14,1009.90,22.62,22.61,31.492,1.093,100.352,32.437,1013.140,97.400,13.300,283.000,9.265,419.69,2,-9.00,9,-9.00,0.25,10.44,338.15,23.45,274.80
AOML_Explorer,Ex0736NE,244.022,01092007,0:31:52,40.382,-73.251,435.28,-9.00,1013.11,1009.90,22.60,22.48,31.531,1.057,100.308,32.430,1013.111,97.500,13.000,282.000,9.265,420.28,2,-9.00,9,-9.00,0.24,10.50,338.40,23.43,275.03
AOML_Explorer,Ex0736NE,244.024,01092007,0:34:25,40.381,-73.239,437.76,-9.00,1013.09,1009.80,22.65,22.33,31.583,1.093,100.294,32.423,1013.090,97.900,12.900,281.000,9.265,419.09,2,-9.00,9,-9.00,0.27,10.58,338.13,23.43,274.40
AOML_Explorer,Ex0736NE,244.026,01092007,0:36:58,40.380,-73.228,440.22,-9.00,1013.14,1009.90,22.59,22.67,31.645,1.163,100.224,32.418,1013.136,97.900,12.900,281.000,8.750,428.32,2,-9.00,9,-9.00,0.17,10.17,336.27,23.4,267.78
AOML_Explorer,Ex0736NE,244.027,01092007,0:39:31,40.378,-73.216,441.65,-9.00,1013.14,1010.00,22.49,22.95,32.212,1.100,100.388,32.414,1013.136,97.800,12.800,286.000,8.750,436.57,2,-9.00,9,-9.00,0.14,9.64,339.72,23.39,258.71
AOML_Explorer,Ex0736NE,244.029,01092007,0:42:04,40.377,-73.204,441.07,-9.00,1013.16,1010.20,22.65,22.83,32.366,1.110,100.387,32.409,1013.156,97.700,12.800,287.000,8.235,430.93,2,-9.00,9,-9.00,0.15,9.12,338.50,23.34,256.89
AOML_Explorer,Ex0736NE,244.031,01092007,0:44:37,40.376,-73.193,435.12,-9.00,1013.09,1009.80,22.94,22.81,32.331,1.097,100.096,32.404,1013.091,92.600,12.800,283.000,9.779,419.66,2,-9.00,9,-9.00,0.15,10.76,335.34,23.4,257.21
AOML_Explorer,Ex0736NE,244.033,01092007,0:47:10,40.376,-73.181,427.82,-9.00,1013.10,1009.90,22.93,22.81,32.332,1.114,100.222,32.401,1013.102,88.600,12.800,291.000,10.809,412.75,2,-9.00,9,-9.00,0.14,10.70,341.67,23.48,257.20
AOML_Explorer,Ex0736NE,244.035,01092007,0:49:43,40.377,-73.169,421.00,-9.00,1013.22,1010.00,22.88,22.69,32.336,1.096,99.982,32.394,1013.219,89.500,12.800,290.000,9.265,405.23,2,-9.00,9,-9.00,0.14,9.60,336.25,23.46,257.22
AOML_Explorer,Ex0736NE,244.036,01092007,0:52:16,40.377,-73.157,415.44,-9.00,1013.16,1009.70,22.87,22.71,32.330,1.079,100.253,32.387,1013.156,89.600,12.900,293.000,9.779,400.32,2,-9.00,9,-9.00,0.14,9.68,340.53,23.46,256.99
AOML_Explorer,Ex0736NE,244.038,01092007,0:54:49,40.377,-73.145,411.48,-9.00,1013.18,1009.80,22.80,22.74,32.303,1.093,100.058,32.382,1013.177,90.100,12.900,288.000,11.323,398.17,2,-9.00,9,-9.00,0.14,11.52,341.07,23.53,257.77
AOML_Explorer,Ex0736NE,244.040,01092007,0:57:22,40.377,-73.134,408.41,-9.00,1013.19,1009.80,22.80,22.83,32.217,1.118,100.233,32.377,1013.187,90.000,12.800,290.000,11.323,396.65,2,-9.00,9,-9.00,0.13,11.28,343.10,23.58,259.24
AOML_Explorer,Ex0736NE,244.042,01092007,0:59:55,40.377,-73.122,407.21,-9.00,1013.21,1009.80,22.84,22.81,32.167,1.104,100.095,32.373,1013.205,89.900,12.600,288.000,11.323,394.38,2,-9.00,9,-9.00,0.14,11.42,342.07,23.53,260.04
AOML_Explorer,Ex0736NE,244.057,01092007,1:21:40,40.376,-73.024,417.60,-9.00,1013.48,1010.40,22.67,22.71,31.420,1.164,100.368,32.392,1013.478,103.900,12.700,273.000,9.265,405.82,2,-9.00,9,-9.00,0.32,11.11,340.69,23.25,283.10
AOML_Explorer,Ex0736NE,244.058,01092007,1:24:13,40.373,-73.013,418.57,-9.00,1013.51,1010.70,22.69,22.61,31.456,1.169,101.590,32.389,1013.507,112.100,12.800,268.000,7.206,404.83,2,-9.00,9,-9.00,0.32,10.00,337.92,23.17,287.12
AOML_Explorer,Ex0736NE,244.060,01092007,1:26:46,40.369,-73.002,419.27,-9.00,1013.46,1010.70,22.74,22.62,31.445,1.177,100.312,32.384,1013.462,122.100,12.800,254.000,7.721,404.78,2,-9.00,9,-9.00,0.31,11.43,342.99,23.13,282.89
AOML_Explorer,Ex0736NE,244.062,01092007,1:29:19,40.364,-72.992,420.05,-9.00,1013.49,1010.70,22.71,22.65,31.471,1.168,100.107,32.376,1013.487,125.100,12.700,259.000,6.691,406.68,2,-9.00,9,-9.00,0.30,10.30,343.94,23.11,280.66
AOML_Explorer,Ex0736NE,244.064,01092007,1:31:52,40.360,-72.982,420.13,-9.00,1013.42,1010.60,22.71,22.70,31.455,1.141,100.202,32.370,1013.421,117.300,12.800,264.000,6.691,407.56,2,-9.00,9,-9.00,0.29,9.98,338.57,23.09,282.01
AOML_Explorer,Ex0736NE,244.066,01092007,1:34:25,40.356,-72.972,420.60,-9.00,1013.35,1010.60,22.73,22.72,31.448,1.124,100.249,32.361,1013.354,109.900,12.800,269.000,7.721,407.76,2,-9.00,9,-9.00,0.28,10.41,337.35,23.1,286.88
AOML_Explorer,Ex0736NE,244.067,01092007,1:36:58,40.354,-72.961,421.50,-9.00,1013.38,1010.30,22.75,22.65,31.437,1.124,100.342,32.355,1013.375,102.400,12.800,262.000,8.235,407.22,2,-9.00,9,-9.00,0.28,11.42,327.05,23.08,290.90
AOML_Explorer,Ex0736NE,244.069,01092007,1:39:31,40.352,-72.949,422.41,-9.00,1013.34,1010.20,22.77,22.40,31.440,1.117,100.164,32.348,1013.337,95.000,12.700,275.000,9.779,403.66,2,-9.00,9,-9.00,0.29,11.54,332.11,23.05,297.25
AOML_Explorer,Ex0736NE,244.071,01092007,1:42:04,40.352,-72.937,422.84,-9.00,1013.27,1009.90,22.72,22.44,31.411,1.122,100.145,32.343,1013.265,88.500,12.700,290.000,9.779,405.53,2,-9.00,9,-9.00,0.28,10.08,336.76,23.03,286.70
AOML_Explorer,Ex0736NE,244.073,01092007,1:44:37,40.353,-72.926,422.40,-9.00,1013.23,1009.90,22.57,22.36,31.453,1.158,100.068,32.335,1013.234,85.500,12.700,289.000,10.294,406.34,2,-9.00,9,-9.00,0.28,10.57,334.85,23.03,294.85
AOML_Explorer,Ex0736NE,244.074,01092007,1:47:10,40.353,-72.914,421.30,-9.00,1013.16,1009.90,22.54,22.43,31.446,1.128,100.107,32.330,1013.158,86.400,12.900,280.000,10.294,406.96,2,-9.00,9,-9.00,0.26,11.53,328.61,23.06,282.09
AOML_Explorer,Ex0736NE,244.076,01092007,1:49:43,40.354,-72.902,420.23,-9.00,1013.02,1009.70,22.49,22.33,31.493,1.150,100.167,32.323,1013.024,86.900,13.000,290.000,11.323,405.09,2,-9.00,9,-9.00,0.24,11.35,339.20,23.06,284.86
AOML_Explorer,Ex0736NE,244.078,01092007,1:52:16,40.355,-72.890,419.32,-9.00,1013.07,1009.70,22.51,22.44,31.594,1.162,100.152,32.320,1013.069,86.600,13.000,294.000,10.809,405.77,2,-9.00,9,-9.00,0.22,10.53,340.53,23.29,279.42
AOML_Explorer,Ex0736NE,244.080,01092007,1:54:49,40.355,-72.879,418.87,-9.00,1013.07,1009.60,22.47,22.51,31.690,1.176,100.281,32.316,1013.066,86.500,12.800,288.000,11.323,407.09,2,-9.00,9,-9.00,0.21,11.57,337.60,23.3,287.61
AOML_Explorer,Ex0736NE,244.082,01092007,1:57:22,40.356,-72.867,418.10,-9.00,1013.10,1009.60,22.51,22.65,31.832,1.136,100.448,32.310,1013.100,86.300,12.600,283.000,11.323,407.95,2,-9.00,9,-9.00,0.18,12.07,333.85,23.34,296.86
AOML_Explorer,Ex0736NE,244.083,01092007,1:59:55,40.356,-72.855,417.29,-9.00,1013.28,1009.70,22.57,22.86,31.917,1.118,100.351,32.307,1013.277,87.000,12.500,291.000,11.838,409.66,2,-9.00,9,-9.00,0.16,11.72,342.23,23.32,297.97
AOML_Explorer,Ex0736NE,244.098,01092007,2:21:40,40.361,-72.758,404.83,-9.00,1013.06,1009.70,22.69,22.55,32.377,1.169,100.241,32.334,1013.065,86.300,12.200,289.000,11.323,390.33,2,-9.00,9,-9.00,0.10,11.36,339.95,23.1,302.06
AOML_Explorer,Ex0736NE,244.100,01092007,2:24:13,40.362,-72.747,404.93,-9.00,1013.13,1009.60,22.65,22.45,32.345,1.167,100.446,32.331,1013.127,86.500,12.200,287.000,10.294,389.60,2,-9.00,9,-9.00,0.10,10.70,335.62,23.07,298.10
AOML_Explorer,Ex0736NE,244.102,01092007,2:26:46,40.362,-72.736,404.42,-9.00,1013.19,1009.50,22.65,22.53,32.326,1.137,100.179,32.329,1013.190,86.300,12.200,286.000,11.323,390.50,2,-9.00,9,-9.00,0.10,11.65,337.76,23.03,296.76
AOML_Explorer,Ex0736NE,244.104,01092007,2:29:19,40.363,-72.725,403.09,-9.00,1012.97,1009.40,22.56,22.43,32.369,1.115,100.364,32.322,1012.974,86.500,12.200,289.000,11.838,388.92,2,-9.00,9,-9.00,0.11,11.80,341.41,23.02,297.50
AOML_Explorer,Ex0736NE,244.105,01092007,2:31:52,40.363,-72.714,401.98,-9.00,1013.01,1009.50,22.58,22.39,32.336,1.129,100.399,32.318,1013.011,86.900,12.300,294.000,12.353,386.90,2,-9.00,9,-9.00,0.11,11.77,347.04,23.04,296.49
AOML_Explorer,Ex0736NE,244.107,01092007,2:34:25,40.364,-72.702,401.28,-9.00,1013.05,1009.60,22.55,22.44,32.356,1.138,100.330,32.312,1013.047,87.200,12.300,294.000,12.353,387.59,2,-9.00,9,-9.00,0.11,11.81,346.91,23.1,296.93
AOML_Explorer,Ex0736NE,244.109,01092007,2:36:58,40.364,-72.691,400.27,-9.00,1012.93,1009.40,22.50,22.43,32.387,1.114,100.112,32.308,1012.934,87.000,12.400,299.000,13.382,387.23,2,-9.00,9,-9.00,0.10,12.16,353.65,23.11,296.35
AOML_Explorer,Ex0736NE,244.111,01092007,2:39:31,40.365,-72.680,399.80,-9.00,1013.02,1009.20,22.52,22.44,32.412,1.168,100.369,32.302,1013.017,86.800,12.400,291.000,12.868,386.62,2,-9.00,9,-9.00,0.10,12.59,344.97,23.15,297.23
AOML_Explorer,Ex0736NE,244.113,01092007,2:42:04,40.365,-72.668,400.35,-9.00,1012.97,1009.40,22.52,22.36,32.430,1.132,100.414,32.294,1012.972,87.000,12.400,291.000,12.353,385.92,2,-9.00,9,-9.00,0.11,12.16,343.76,23.16,297.76
AOML_Explorer,Ex0736NE,244.114,01092007,2:44:37,40.366,-72.657,401.84,-9.00,1012.86,1009.40,22.52,22.34,32.412,1.121,100.321,32.293,1012.862,87.200,12.400,295.000,13.382,386.91,2,-9.00,9,-9.00,0.10,12.63,349.88,23.1,301.17
AOML_Explorer,Ex0736NE,244.116,01092007,2:47:10,40.366,-72.645,403.36,-9.00,1013.00,1009.40,22.48,22.33,32.426,1.124,100.038,32.285,1012.999,86.600,12.500,297.000,12.868,388.94,2,-9.00,9,-9.00,0.11,11.95,350.51,23.08,297.63
AOML_Explorer,Ex0736NE,244.118,01092007,2:49:43,40.366,-72.634,404.08,-9.00,1012.88,1009.50,22.45,22.26,32.426,1.109,100.208,32.281,1012.876,86.400,12.500,293.000,13.382,389.08,2,-9.00,9,-9.00,0.11,12.83,347.80,23.03,298.71
AOML_Explorer,Ex0736NE,244.120,01092007,2:52:16,40.367,-72.622,404.79,-9.00,1013.23,1009.50,22.43,22.22,32.423,1.109,100.312,32.274,1013.227,86.700,12.600,292.000,12.353,389.36,2,-9.00,9,-9.00,0.10,12.05,344.54,23.01,302.19
AOML_Explorer,Ex0736NE,244.121,01092007,2:54:49,40.367,-72.611,404.90,-9.00,1012.95,1009.20,22.39,22.17,32.460,1.123,100.176,32.271,1012.949,87.400,12.500,300.000,14.926,389.38,2,-9.00,9,-9.00,0.11,13.53,357.35,23.04,295.62
AOML_Explorer,Ex0736NE,244.123,01092007,2:57:22,40.368,-72.599,405.07,-9.00,1013.00,1009.10,22.34,22.16,32.447,1.158,99.962,32.266,1013.004,87.600,12.700,297.000,12.868,390.27,2,-9.00,9,-9.00,0.12,12.04,349.79,23.08,300.11
AOML_Explorer,Ex0736NE,244.125,01092007,2:59:55,40.368,-72.588,405.45,-9.00,1012.99,1009.30,22.32,22.19,32.440,1.112,100.363,32.263,1012.993,87.300,12.700,292.000,13.382,391.47,2,-9.00,9,-9.00,0.10,13.00,346.59,23.06,295.65
AOML_Explorer,Ex0736NE,244.140,01092007,3:21:40,40.372,-72.487,404.42,-9.00,1013.18,1009.90,22.50,22.40,32.383,1.107,100.322,32.289,1013.185,86.900,12.900,299.000,11.838,390.72,2,-9.00,9,-9.00,0.11,10.81,348.90,22.75,297.33
AOML_Explorer,Ex0736NE,244.142,01092007,3:24:13,40.373,-72.476,404.97,-9.00,1013.21,1010.00,22.50,22.62,32.318,1.098,99.956,32.286,1013.212,86.400,12.800,299.000,11.323,394.91,2,-9.00,9,-9.00,0.11,10.35,347.37,22.7,298.02
AOML_Explorer,Ex0736NE,244.144,01092007,3:26:46,40.373,-72.464,405.25,-9.00,1013.23,1009.90,22.49,22.55,32.327,1.088,100.479,32.284,1013.226,86.400,12.700,303.000,11.323,394.18,2,-9.00,9,-9.00,0.11,9.86,351.43,22.71,296.46
AOML_Explorer,Ex0736NE,244.145,01092007,3:29:19,40.374,-72.452,405.40,-9.00,1013.25,1010.00,22.60,22.69,32.259,1.085,100.387,32.279,1013.248,86.300,12.700,299.000,11.323,394.82,2,-9.00,9,-9.00,0.11,10.29,347.35,22.74,296.15
AOML_Explorer,Ex0736NE,244.147,01092007,3:31:52,40.374,-72.440,405.66,-9.00,1013.27,1010.00,22.62,22.69,32.261,1.108,100.591,32.272,1013.265,86.400,12.600,299.000,11.838,394.71,2,-9.00,9,-9.00,0.10,10.75,349.23,22.75,294.76
AOML_Explorer,Ex0736NE,244.149,01092007,3:34:25,40.375,-72.429,405.20,-9.00,1013.29,1010.10,22.70,22.67,32.263,1.133,100.322,32.260,1013.287,86.900,12.600,300.000,11.323,392.58,2,-9.00,9,-9.00,0.10,10.24,348.68,22.79,296.31
AOML_Explorer,Ex0736NE,244.151,01092007,3:36:58,40.375,-72.417,404.40,-9.00,1013.32,1010.20,22.73,22.61,32.224,1.129,100.450,32.258,1013.317,86.000,12.600,299.000,10.809,390.40,2,-9.00,9,-9.00,0.11,9.86,345.78,22.78,290.37
AOML_Explorer,Ex0736NE,244.152,01092007,3:39:31,40.376,-72.405,403.60,-9.00,1013.36,1010.10,22.72,22.60,32.099,1.102,100.314,32.247,1013.360,92.000,12.600,299.000,11.838,389.68,2,-9.00,9,-9.00,0.12,10.70,355.41,22.78,295.48
AOML_Explorer,Ex0736NE,244.154,01092007,3:42:04,40.375,-72.394,402.59,-9.00,1013.30,1010.40,22.69,22.52,32.077,1.098,100.310,32.247,1013.297,94.200,12.600,306.000,10.809,387.83,2,-9.00,9,-9.00,0.13,9.13,0.25,22.76,297.72
AOML_Explorer,Ex0736NE,244.156,01092007,3:44:37,40.374,-72.382,402.31,-9.00,1013.39,1010.60,22.67,22.53,32.035,1.074,100.389,32.238,1013.386,93.900,12.400,309.000,10.294,388.27,2,-9.00,9,-9.00,0.13,8.37,1.57,22.69,297.75
AOML_Explorer,Ex0736NE,244.158,01092007,3:47:10,40.374,-72.380,402.96,-9.00,1013.43,1010.50,22.61,22.63,32.028,1.148,100.470,32.233,1013.432,0.000,0.000,307.000,10.294,391.40,2,-9.00,9,-9.00,0.12,8.60,359.19,22.68,298.65
AOML_Explorer,Ex0736NE,244.160,01092007,3:49:43,40.374,-72.380,403.19,-9.00,1013.50,1010.50,22.60,22.69,32.075,1.142,100.726,32.230,1013.504,0.000,0.000,308.000,9.779,392.70,2,-9.00,9,-9.00,0.11,8.02,358.42,22.65,299.02
AOML_Explorer,Ex0736NE,244.161,01092007,3:52:16,40.374,-72.380,403.72,-9.00,1013.52,1010.60,22.66,22.65,32.083,1.082,100.399,32.223,1013.520,0.000,0.000,301.000,9.779,391.53,2,-9.00,9,-9.00,0.11,8.75,351.84,22.62,296.98
AOML_Explorer,Ex0736NE,244.163,01092007,3:54:49,40.374,-72.380,404.17,-9.00,1013.52,1010.60,22.71,22.48,32.084,1.130,100.792,32.219,1013.516,0.000,0.000,302.000,9.265,388.50,2,-9.00,9,-9.00,0.12,8.29,350.48,22.59,299.06
AOML_Explorer,Ex0736NE,244.165,01092007,3:57:22,40.374,-72.380,404.47,-9.00,1013.49,1010.60,22.71,22.43,32.151,1.106,100.467,32.213,1013.492,0.000,0.000,302.000,9.779,388.09,2,-9.00,9,-9.00,0.10,8.68,352.55,22.54,296.29
AOML_Explorer,Ex0736NE,244.167,01092007,3:59:55,40.371,-72.313,404.50,-9.00,1013.51,1010.60,22.60,22.58,32.235,1.132,100.515,32.207,1013.509,93.400,12.400,304.000,9.265,392.28,2,-9.00,9,-9.00,0.10,8.08,351.80,22.5,293.17
AOML_Explorer,Ex0736NE,244.182,01092007,4:21:40,40.368,-72.214,407.91,-9.00,1013.68,1011.00,22.46,22.34,32.180,1.138,100.392,32.235,1013.680,90.900,12.600,322.000,8.750,394.17,2,-9.00,9,-9.00,0.07,5.48,4.00,22.24,273.97
AOML_Explorer,Ex0736NE,244.183,01092007,4:24:13,40.368,-72.202,408.25,-9.00,1013.73,1011.00,22.43,22.29,32.166,1.075,100.698,32.231,1013.731,90.800,12.700,323.000,7.721,394.22,2,-9.00,9,-9.00,0.07,4.73,355.92,22.21,271.55
AOML_Explorer,Ex0736NE,244.185,01092007,4:26:46,40.368,-72.191,408.39,-9.00,1013.69,1011.00,22.43,22.27,32.149,1.131,100.448,32.228,1013.687,90.700,12.700,321.000,8.235,393.86,2,-9.00,9,-9.00,0.07,5.30,358.53,22.12,275.84
AOML_Explorer,Ex0736NE,244.187,01092007,4:29:19,40.367,-72.179,408.60,-9.00,1013.71,1011.00,22.40,22.24,32.148,1.071,100.526,32.222,1013.707,90.900,12.700,321.000,9.265,394.21,2,-9.00,9,-9.00,0.08,6.02,5.99,22.08,275.28
AOML_Explorer,Ex0736NE,244.189,01092007,4:31:52,40.368,-72.167,408.71,-9.00,1013.80,1011.10,22.37,22.30,32.152,1.104,100.371,32.215,1013.795,87.800,12.700,321.000,8.235,395.63,2,-9.00,9,-9.00,0.07,5.32,355.34,22.07,286.74
AOML_Explorer,Ex0736NE,244.191,01092007,4:34:25,40.368,-72.155,408.53,-9.00,1013.75,1011.00,22.36,22.28,32.161,1.145,100.405,32.211,1013.748,88.800,12.700,321.000,9.265,395.46,2,-9.00,9,-9.00,0.07,5.99,3.69,22.04,274.27
AOML_Explorer,Ex0736NE,244.192,01092007,4:36:58,40.368,-72.143,408.41,-9.00,1013.70,1010.80,22.38,22.31,32.177,1.086,100.571,32.207,1013.698,89.300,12.800,317.000,9.265,395.44,2,-9.00,9,-9.00,0.08,6.53,358.79,22.04,276.84
AOML_Explorer,Ex0736NE,244.194,01092007,4:39:31,40.368,-72.132,408.42,-9.00,1013.76,1010.90,22.38,22.34,32.180,1.086,100.482,32.202,1013.760,88.700,12.800,317.000,9.265,395.96,2,-9.00,9,-9.00,0.08,6.55,358.77,22.07,274.47
AOML_Explorer,Ex0736NE,244.196,01092007,4:42:04,40.368,-72.120,408.42,-9.00,1013.72,1010.90,22.40,22.36,32.192,1.110,100.677,32.198,1013.716,89.000,12.600,310.000,9.265,395.95,2,-9.00,9,-9.00,0.09,7.35,352.81,22.07,276.20
AOML_Explorer,Ex0736NE,244.198,01092007,4:44:37,40.369,-72.108,408.71,-9.00,1013.75,1010.80,22.42,22.36,32.196,1.119,100.549,32.192,1013.755,88.500,12.300,317.000,9.265,395.94,2,-9.00,9,-9.00,0.09,6.58,0.55,22.05,290.47
AOML_Explorer,Ex0736NE,244.199,01092007,4:47:10,40.369,-72.097,409.08,-9.00,1013.74,1010.90,22.43,22.36,32.192,1.095,100.715,32.185,1013.736,89.000,12.100,310.000,8.235,396.14,2,-9.00,9,-9.00,0.10,6.62,349.15,22.04,294.92
AOML_Explorer,Ex0736NE,244.201,01092007,4:49:43,40.369,-72.086,409.45,-9.00,1013.77,1010.90,22.44,22.43,32.189,1.103,100.504,32.181,1013.770,88.900,12.000,313.000,8.750,397.53,2,-9.00,9,-9.00,0.11,6.64,355.22,22.04,292.14
AOML_Explorer,Ex0736NE,244.203,01092007,4:52:16,40.369,-72.075,409.71,-9.00,1013.76,1010.90,22.44,22.46,32.183,1.093,100.567,32.178,1013.763,87.800,11.900,311.000,8.750,398.13,2,-9.00,9,-9.00,0.12,6.77,353.66,22.04,294.96
AOML_Explorer,Ex0736NE,244.205,01092007,4:54:49,40.369,-72.064,409.86,-9.00,1013.86,1011.10,22.49,22.51,32.178,1.140,100.671,32.175,1013.859,89.200,11.800,316.000,8.235,398.35,2,-9.00,9,-9.00,0.11,5.94,355.87,22.07,294.48
AOML_Explorer,Ex0736NE,244.207,01092007,4:57:22,40.369,-72.053,410.38,-9.00,1013.65,1011.10,22.52,22.48,32.176,1.083,100.428,32.169,1013.652,89.600,11.900,318.000,8.750,397.75,2,-9.00,9,-9.00,0.10,6.18,0.70,22.01,296.18
AOML_Explorer,Ex0736NE,244.208,01092007,4:59:55,40.369,-72.042,411.14,-9.00,1013.64,1011.10,22.57,22.43,32.123,1.090,100.509,32.167,1013.640,89.600,11.800,320.000,8.750,396.88,2,-9.00,9,-9.00,0.10,5.98,2.63,21.99,296.03
AOML_Explorer,Ex0736NE,244.223,01092007,5:21:40,40.369,-71.971,404.60,-9.00,1013.54,1011.00,22.19,21.90,32.198,1.085,100.350,32.202,1013.540,0.000,0.000,327.000,9.265,388.31,2,-9.00,9,-9.00,0.14,5.90,8.69,21.66,306.97
AOML_Explorer,Ex0736NE,244.225,01092007,5:24:13,40.369,-71.971,406.99,-9.00,1013.59,1011.00,22.14,21.69,32.286,1.079,99.868,32.202,1013.592,0.000,0.000,324.000,9.779,388.15,2,-9.00,9,-9.00,0.13,6.59,7.54,21.65,305.73
AOML_Explorer,Ex0736NE,244.227,01092007,5:26:46,40.369,-71.971,408.42,-9.00,1013.60,1011.10,22.07,21.61,32.457,1.117,99.904,32.202,1013.600,0.000,0.000,327.000,9.265,389.46,2,-9.00,9,-9.00,0.11,5.89,4.85,21.61,302.79
AOML_Explorer,Ex0736NE,244.229,01092007,5:29:19,40.372,-71.920,409.24,-9.00,1013.48,1011.00,21.92,21.59,32.564,1.111,99.972,32.199,1013.483,0.000,0.000,330.000,10.294,392.19,2,-9.00,9,-9.00,0.10,6.52,7.41,21.5,301.31
AOML_Explorer,Ex0736NE,244.230,01092007,5:31:52,40.372,-71.920,410.98,-9.00,1013.56,1011.30,21.82,21.52,32.627,1.078,99.903,32.195,1013.555,0.000,0.000,338.000,10.294,394.44,2,-9.00,9,-9.00,0.11,5.96,6.40,21.51,296.91
AOML_Explorer,Ex0736NE,244.232,01092007,5:34:25,40.372,-71.920,414.26,-9.00,1013.55,1011.50,21.79,21.67,32.572,1.067,99.574,32.194,1013.547,0.000,0.000,351.000,11.323,400.73,2,-9.00,9,-9.00,0.10,5.93,19.41,21.55,299.65
AOML_Explorer,Ex0736NE,244.234,01092007,5:36:58,40.386,-71.893,416.69,-9.00,1013.54,1011.50,21.75,22.00,32.550,1.045,100.105,32.192,1013.536,35.400,11.900,1.000,12.353,409.05,2,-9.00,9,-9.00,0.09,6.33,26.99,21.53,288.62
AOML_Explorer,Ex0736NE,244.236,01092007,5:39:31,40.393,-71.888,417.88,-9.00,1013.53,1011.70,21.80,21.84,32.700,1.067,99.932,32.187,1013.532,21.400,12.500,6.000,12.868,406.77,2,-9.00,9,-9.00,0.09,6.47,25.36,21.49,277.63
AOML_Explorer,Ex0736NE,244.238,01092007,5:42:04,40.402,-71.885,418.55,-9.00,1013.50,1011.90,21.99,21.86,32.601,1.099,99.945,32.182,1013.500,12.300,13.000,10.000,13.382,404.50,2,-9.00,9,-9.00,0.09,6.85,27.28,21.58,272.73
AOML_Explorer,Ex0736NE,244.239,01092007,5:44:37,40.411,-71.882,419.59,-9.00,1013.56,1012.00,22.02,21.75,32.598,1.117,100.193,32.175,1013.556,11.700,13.200,18.000,15.441,403.19,2,-9.00,9,-9.00,0.09,9.13,39.69,21.62,270.77
AOML_Explorer,Ex0736NE,244.241,01092007,5:47:10,40.420,-71.880,419.46,-9.00,1013.59,1012.10,21.99,21.74,32.626,1.053,99.738,32.169,1013.593,11.500,13.600,15.000,15.441,403.30,2,-9.00,9,-9.00,0.09,8.83,35.78,21.67,268.22
AOML_Explorer,Ex0736NE,244.243,01092007,5:49:43,40.430,-71.877,418.61,-9.00,1013.64,1012.30,21.92,21.74,32.638,1.086,100.157,32.162,1013.637,12.000,13.700,15.000,15.441,403.83,2,-9.00,9,-9.00,0.09,8.76,35.70,21.65,265.85
AOML_Explorer,Ex0736NE,244.245,01092007,5:52:16,40.439,-71.875,417.89,-9.00,1013.67,1012.20,21.88,21.68,32.637,1.077,100.269,32.156,1013.671,11.700,13.900,17.000,14.926,402.76,2,-9.00,9,-9.00,0.09,8.33,40.52,21.69,265.61
AOML_Explorer,Ex0736NE,244.246,01092007,5:54:49,40.449,-71.872,417.22,-9.00,1013.69,1012.20,21.87,21.81,32.655,1.063,99.876,32.148,1013.694,11.800,14.000,14.000,14.926,404.47,2,-9.00,9,-9.00,0.09,8.14,35.19,21.66,263.92
AOML_Explorer,Ex0736NE,244.248,01092007,5:57:22,40.459,-71.870,416.88,-9.00,1013.80,1012.20,21.84,21.76,32.665,1.087,100.016,32.139,1013.800,11.700,14.000,7.000,13.897,403.85,2,-9.00,9,-9.00,0.08,6.81,23.31,21.67,261.80
AOML_Explorer,Ex0736NE,244.250,01092007,5:59:55,40.468,-71.867,416.53,-9.00,1013.85,1012.20,21.90,21.84,32.657,1.094,99.866,32.138,1013.847,11.800,14.000,7.000,14.926,403.85,2,-9.00,9,-9.00,0.08,7.81,22.57,21.64,260.34